,

(GMT )
White Rock

Weather History for CWWK - March, 2013

Change the Weather History Date:

Friday, March 8, 2013

  Actual Average Record
Temperature  
Mean Temperature 44 °F -  
Max Temperature 49 °F - - ()
Min Temperature 38 °F - - ()
Degree Days  
Heating Degree Days 22    
Moisture  
Dew Point 39 °F    
Average Humidity 84    
Maximum Humidity 92    
Minimum Humidity 63    
Precipitation  
Precipitation 0.00 in - - ()
Sea Level Pressure  
Sea Level Pressure 30.17 in    
Wind  
Wind Speed 2 mph ()    
Max Wind Speed 6 mph    
Max Gust Speed -    
T = Trace of Precipitation, MM = Missing Value Source: Averaged Metar Reports

Daily Weather History Graph

Daily Weather History Graph

Search for Another Location

Airport or City:

Trip Planner

Search our weather history database for the weather conditions in past years. The results will help you decide how hot, cold, wet, or windy it might be!

Date:

Astronomy

Mar. 08, 2013 Rise Set
Actual Time 6:38 AM PST 6:06 PM PST
Civil Twilight 6:06 AM PST 6:37 PM PST
Nautical Twilight 5:30 AM PST 7:14 PM PST
Astronomical Twilight 4:52 AM PST 7:51 PM PST
Moon 4:40 AM PST (3/8) 2:55 PM PST (3/8)
Length of Visible Light 12h 30m
Length of Day
11h 27m
Waning Crescent, 11% of the Moon is Illuminated
Mar 8
Waning Crescent
Mar 11
New
Mar 19
First Quarter
Mar 27
Full
Apr 2
Last Quarter

Hourly Weather History & Observations

Time (PST) Temp. Windchill Dew Point Humidity Pressure Visibility Wind Dir Wind Speed Gust Speed Precip Events Conditions
12:00 AM 42.1 °F - 39.4 °F 90% 30.14 in - NNE 2.3 mph - N/A   Unknown
1:00 AM 41.5 °F 38.6 °F 38.8 °F 90% 30.14 in - North 4.6 mph - N/A   Unknown
2:00 AM 41.4 °F 38.4 °F 38.8 °F 91% 30.14 in - North 4.6 mph - N/A   Unknown
3:00 AM 40.6 °F - 37.9 °F 90% 30.13 in - ENE 1.2 mph - N/A   Unknown
4:00 AM 40 °F - 38 °F 88% 30.12 in - NNE 3.5 mph - -  
4:00 AM 40.1 °F 38.0 °F 37.6 °F 91% 30.12 in - NNE 3.5 mph - N/A   Unknown
5:00 AM 40.1 °F - 37.4 °F 90% 30.13 in - ENE 1.2 mph - N/A   Unknown
6:00 AM 40.3 °F - 37.8 °F 91% 30.14 in - ENE 1.2 mph - N/A   Unknown
7:00 AM 40.6 °F - 38.1 °F 91% 30.16 in - Calm Calm - N/A   Unknown
8:00 AM 40.8 °F - 37.8 °F 89% 30.16 in - NNE 2.3 mph - N/A   Unknown
9:00 AM 43.0 °F - 39.0 °F 86% 30.17 in - NNE 2.3 mph - N/A   Unknown
10:00 AM 44 °F - 39 °F 77% 30.17 in - South 2.3 mph - -  
10:00 AM 44.1 °F - 39.2 °F 83% 30.17 in - South 2.3 mph - N/A   Unknown
11:00 AM 45.9 °F 43.6 °F 39.6 °F 79% 30.18 in - West 4.6 mph - N/A   Unknown
12:00 PM 47.5 °F - 39.6 °F 74% 30.17 in - WSW 3.5 mph - N/A   Unknown
1:00 PM 48.2 °F - 40.1 °F 74% 30.17 in - West 5.8 mph - N/A   Unknown
2:00 PM 48.0 °F - 40.3 °F 75% 30.17 in - West 4.6 mph - N/A   Unknown
3:00 PM 49.1 °F - 41.4 °F 75% 30.17 in - West 2.3 mph - N/A   Unknown
4:00 PM 49 °F - 40 °F 63% 30.17 in - West 4.6 mph - -  
4:00 PM 48.6 °F - 40.3 °F 73% 30.17 in - West 4.6 mph - N/A   Unknown
5:00 PM 48.6 °F - 40.8 °F 75% 30.17 in - West 3.5 mph - N/A   Unknown
6:00 PM 46.8 °F - 39.4 °F 75% 30.19 in - WSW 2.3 mph - N/A   Unknown
7:00 PM 45.0 °F - 40.8 °F 85% 30.20 in - West 1.2 mph - N/A   Unknown
8:00 PM 41.7 °F - 38.1 °F 87% 30.22 in - Calm Calm - N/A   Unknown
9:00 PM 39.9 °F - 36.9 °F 89% 30.23 in - Calm Calm - N/A   Unknown
10:00 PM 39 °F - 36 °F 85% 30.24 in - Calm Calm - -  
10:00 PM 38.8 °F - 36.1 °F 90% 30.24 in - Calm Calm - N/A   Unknown
11:00 PM 38.7 °F 36.3 °F 36.5 °F 92% 30.26 in - North 3.5 mph - N/A   Unknown